SIA109 VTSP-WSSS

Flight info

Callsign SIA109
Flight time 1h 29m
Altitude 37000
Route REBED1B REBED B579 VPL Y503 RINBA Y507 MAKNA Y511 TOPOR A464 ARAMA DCT TEBUN TEBUN1B
Aircraft B77W/H-SDE1E2E3FGHIJ2J3J4J5M1RWXY/LB1D1

Departure

Time 2026-05-07 10:21
Airport Phuket International Airport (VTSP)

Arrival

Time 2026-05-07 11:50
Airport Singapore Changi Airport (WSSS)
Time Latitude Longitude Altitude Speed Heading
2026-05-07 09:58 8.10839 98.30533 6 ft 0 kts 106°
2026-05-07 09:59 8.10715 98.30503 5 ft 0 kts 103°
2026-05-07 10:10 8.10715 98.30501 5 ft 2 kts 103°
2026-05-07 10:10 8.10718 98.30485 4 ft 2 kts 100°
2026-05-07 10:10 8.10721 98.30468 4 ft 2 kts 97°
2026-05-07 10:11 8.10722 98.30452 4 ft 2 kts 92°
2026-05-07 10:11 8.10722 98.30435 3 ft 2 kts 83°
2026-05-07 10:11 8.10719 98.30419 3 ft 2 kts 66°
2026-05-07 10:11 8.10710 98.30405 5 ft 2 kts 34°
2026-05-07 10:12 8.10699 98.30400 5 ft 1 kts 17°
2026-05-07 10:12 8.10698 98.30399 5 ft 0 kts 17°
2026-05-07 10:13 8.10700 98.30400 5 ft 1 kts 17°
2026-05-07 10:13 8.10731 98.30409 5 ft 7 kts 14°
2026-05-07 10:14 8.10784 98.30422 3 ft 10 kts 14°
2026-05-07 10:14 8.10867 98.30444 4 ft 15 kts 15°
2026-05-07 10:14 8.10968 98.30471 4 ft 15 kts 15°
2026-05-07 10:14 8.11045 98.30531 6 ft 15 kts 75°
2026-05-07 10:15 8.11058 98.30635 8 ft 15 kts 84°
2026-05-07 10:15 8.11068 98.30740 10 ft 15 kts 84°
2026-05-07 10:15 8.11078 98.30845 13 ft 15 kts 85°
2026-05-07 10:15 8.11099 98.30947 15 ft 15 kts 61°
2026-05-07 10:16 8.11124 98.31048 17 ft 15 kts 84°
2026-05-07 10:16 8.11134 98.31153 20 ft 15 kts 85°
2026-05-07 10:16 8.11144 98.31258 23 ft 15 kts 84°
2026-05-07 10:16 8.11154 98.31363 26 ft 15 kts 84°
2026-05-07 10:17 8.11164 98.31466 28 ft 15 kts 84°
2026-05-07 10:17 8.11174 98.31571 31 ft 15 kts 85°
2026-05-07 10:17 8.11184 98.31676 33 ft 15 kts 84°
2026-05-07 10:17 8.11197 98.31817 37 ft 23 kts 84°
2026-05-07 10:18 8.11214 98.31994 40 ft 25 kts 85°
2026-05-07 10:18 8.11229 98.32159 44 ft 23 kts 84°
2026-05-07 10:18 8.11244 98.32312 47 ft 21 kts 84°
2026-05-07 10:18 8.11256 98.32450 50 ft 19 kts 84°
2026-05-07 10:19 8.11269 98.32575 51 ft 16 kts 78°
2026-05-07 10:19 8.11298 98.32619 47 ft 4 kts 36°
2026-05-07 10:19 8.11324 98.32631 53 ft 4 kts 15°
2026-05-07 10:19 8.11358 98.32633 49 ft 7 kts 360°
2026-05-07 10:20 8.11402 98.32601 48 ft 9 kts 290°
2026-05-07 10:20 8.11403 98.32566 49 ft 0 kts 266°
2026-05-07 10:20 8.11399 98.32508 52 ft 42 kts 265°
2026-05-07 10:20 8.11330 98.31781 36 ft 165 kts 264°
2026-05-07 10:21 8.11224 98.30349 760 ft 216 kts 265°
2026-05-07 10:21 8.11080 98.28918 2414 ft 203 kts 263°
2026-05-07 10:21 8.10754 98.27483 2758 ft 223 kts 238°
2026-05-07 10:21 8.09526 98.26452 3002 ft 246 kts 197°
2026-05-07 10:22 8.07818 98.26207 3516 ft 253 kts 183°
2026-05-07 10:22 8.06025 98.26061 4192 ft 264 kts 184°
2026-05-07 10:22 8.04170 98.25886 4977 ft 272 kts 184°
2026-05-07 10:22 8.02271 98.25690 5826 ft 276 kts 185°
2026-05-07 10:23 8.00350 98.25478 6660 ft 280 kts 185°
2026-05-07 10:23 7.98402 98.25252 7458 ft 284 kts 185°
2026-05-07 10:23 7.96431 98.25017 8269 ft 287 kts 185°
2026-05-07 10:23 7.94456 98.24779 9081 ft 290 kts 185°
2026-05-07 10:24 7.92439 98.24534 9873 ft 294 kts 185°
2026-05-07 10:24 7.90397 98.24499 10459 ft 299 kts 167°
2026-05-07 10:24 7.88443 98.25368 10676 ft 322 kts 139°
2026-05-07 10:24 7.87030 98.27199 10877 ft 343 kts 115°
2026-05-07 10:25 7.86061 98.29484 11089 ft 365 kts 112°
2026-05-07 10:25 7.85110 98.31902 11764 ft 376 kts 111°
2026-05-07 10:25 7.84138 98.34374 12643 ft 382 kts 111°
2026-05-07 10:25 7.83142 98.36877 13560 ft 387 kts 112°
2026-05-07 10:26 7.82121 98.39403 14356 ft 391 kts 112°
2026-05-07 10:26 7.81077 98.41957 15137 ft 396 kts 112°
2026-05-07 10:26 7.80016 98.44540 15891 ft 401 kts 112°
2026-05-07 10:26 7.78953 98.47119 16638 ft 406 kts 112°
2026-05-07 10:27 7.77862 98.49766 17358 ft 411 kts 112°
2026-05-07 10:27 7.76758 98.52438 18069 ft 416 kts 112°
2026-05-07 10:27 7.75635 98.55143 18675 ft 420 kts 112°
2026-05-07 10:27 7.74503 98.57870 19278 ft 424 kts 112°
2026-05-07 10:28 7.73354 98.60627 19888 ft 425 kts 113°
2026-05-07 10:28 7.71840 98.63217 20305 ft 435 kts 129°
2026-05-07 10:28 7.69592 98.65262 20798 ft 437 kts 141°
2026-05-07 10:28 7.67171 98.67160 21300 ft 443 kts 141°
2026-05-07 10:29 7.64743 98.69101 21895 ft 447 kts 140°
2026-05-07 10:29 7.62342 98.71049 22496 ft 450 kts 140°
2026-05-07 10:29 7.59897 98.73051 23071 ft 453 kts 140°
2026-05-07 10:30 7.54960 98.77111 24008 ft 461 kts 140°
2026-05-07 10:30 7.52465 98.79163 24478 ft 464 kts 140°
2026-05-07 10:30 7.49956 98.81225 24947 ft 467 kts 140°
2026-05-07 10:30 7.47428 98.83301 25409 ft 470 kts 140°
2026-05-07 10:31 7.44882 98.85390 25872 ft 473 kts 140°
2026-05-07 10:31 7.42354 98.87464 26284 ft 476 kts 140°
2026-05-07 10:31 7.39782 98.89575 26696 ft 479 kts 140°
2026-05-07 10:31 7.37184 98.91705 27109 ft 482 kts 140°
2026-05-07 10:32 7.34575 98.93846 27523 ft 485 kts 140°
2026-05-07 10:32 7.31950 98.95998 27908 ft 487 kts 140°
2026-05-07 10:32 7.29313 98.98162 28274 ft 490 kts 140°
2026-05-07 10:32 7.26661 99.00336 28626 ft 493 kts 140°
2026-05-07 10:33 7.23996 99.02522 28966 ft 495 kts 140°
2026-05-07 10:33 7.21320 99.04716 29276 ft 498 kts 140°
2026-05-07 10:33 7.18620 99.06929 29577 ft 500 kts 139°
2026-05-07 10:33 7.15913 99.09147 29875 ft 502 kts 140°
2026-05-07 10:34 7.13194 99.11375 30107 ft 505 kts 140°
2026-05-07 10:34 7.10478 99.13599 30509 ft 502 kts 140°
2026-05-07 10:34 7.07780 99.15809 30978 ft 499 kts 140°
2026-05-07 10:34 7.05125 99.17983 31360 ft 498 kts 140°
2026-05-07 10:35 7.02437 99.20185 31694 ft 498 kts 140°
2026-05-07 10:35 6.99758 99.22379 32028 ft 498 kts 140°
2026-05-07 10:35 6.97070 99.24580 32395 ft 498 kts 140°
2026-05-07 10:35 6.94389 99.26774 32777 ft 497 kts 140°
2026-05-07 10:36 6.91708 99.28969 33153 ft 496 kts 140°
2026-05-07 10:36 6.89028 99.31162 33517 ft 496 kts 140°
2026-05-07 10:36 6.86352 99.33352 33871 ft 495 kts 140°
2026-05-07 10:36 6.83681 99.35537 34199 ft 494 kts 140°
2026-05-07 10:37 6.81016 99.37717 34542 ft 494 kts 140°
2026-05-07 10:37 6.78354 99.39894 34913 ft 492 kts 140°
2026-05-07 10:37 6.75707 99.42058 35297 ft 490 kts 140°
2026-05-07 10:37 6.73063 99.44220 35675 ft 488 kts 140°
2026-05-07 10:38 6.70431 99.46372 35991 ft 488 kts 141°
2026-05-07 10:38 6.67796 99.48526 36298 ft 487 kts 141°
2026-05-07 10:38 6.65164 99.50677 36544 ft 489 kts 141°
2026-05-07 10:38 6.62519 99.52838 36704 ft 492 kts 141°
2026-05-07 10:39 6.57214 99.57173 36786 ft 493 kts 141°
2026-05-07 10:39 6.51921 99.61497 36783 ft 488 kts 141°
2026-05-07 10:40 6.46661 99.65792 36784 ft 485 kts 141°
2026-05-07 10:40 6.41336 99.69931 36777 ft 483 kts 143°
2026-05-07 10:41 6.36002 99.74053 36782 ft 484 kts 140°
2026-05-07 10:41 6.31150 99.78739 36820 ft 484 kts 134°
2026-05-07 10:42 6.26477 99.83637 36810 ft 486 kts 134°
2026-05-07 10:42 6.21763 99.88528 36809 ft 488 kts 135°
2026-05-07 10:43 6.17817 99.92585 36809 ft 489 kts 135°
2026-05-07 10:43 6.13053 99.97479 36802 ft 490 kts 134°
2026-05-07 10:44 6.08342 100.02314 36803 ft 490 kts 135°
2026-05-07 10:44 6.03558 100.07200 36802 ft 490 kts 135°
2026-05-07 10:45 5.98781 100.12075 36794 ft 490 kts 134°
2026-05-07 10:45 5.94006 100.16951 36802 ft 490 kts 134°
2026-05-07 10:46 5.89139 100.21695 36807 ft 490 kts 141°
2026-05-07 10:46 5.83473 100.25491 36789 ft 491 kts 152°
2026-05-07 10:47 5.77317 100.28439 36801 ft 490 kts 155°
2026-05-07 10:47 5.71120 100.31304 36797 ft 490 kts 155°
2026-05-07 10:48 5.64941 100.34192 36777 ft 490 kts 154°
2026-05-07 10:48 5.58770 100.37108 36773 ft 490 kts 154°
2026-05-07 10:49 5.52598 100.40033 36779 ft 491 kts 154°
2026-05-07 10:49 5.46412 100.42965 36776 ft 491 kts 154°
2026-05-07 10:50 5.40228 100.45894 36783 ft 491 kts 154°
2026-05-07 10:50 5.34038 100.48823 36774 ft 492 kts 154°
2026-05-07 10:51 5.27842 100.51755 36774 ft 492 kts 154°
2026-05-07 10:51 5.21653 100.54683 36772 ft 492 kts 154°
2026-05-07 10:52 5.15463 100.57610 36771 ft 492 kts 153°
2026-05-07 10:52 5.09280 100.60534 36774 ft 491 kts 153°
2026-05-07 10:53 5.03150 100.63433 36764 ft 490 kts 154°
2026-05-07 10:53 4.96998 100.66340 36783 ft 489 kts 153°
2026-05-07 10:54 4.90845 100.69248 36777 ft 488 kts 153°
2026-05-07 10:54 4.84701 100.72151 36771 ft 488 kts 153°
2026-05-07 10:55 4.78553 100.75055 36766 ft 488 kts 153°
2026-05-07 10:55 4.72443 100.77941 36760 ft 488 kts 153°
2026-05-07 10:56 4.66294 100.80844 36762 ft 488 kts 153°
2026-05-07 10:56 4.60145 100.83748 36752 ft 489 kts 153°
2026-05-07 10:57 4.53978 100.86658 36748 ft 490 kts 153°
2026-05-07 10:57 4.47810 100.89569 36757 ft 490 kts 153°
2026-05-07 10:58 4.41646 100.92478 36753 ft 490 kts 153°
2026-05-07 10:58 4.35479 100.95387 36758 ft 489 kts 153°
2026-05-07 10:59 4.29359 100.98273 36748 ft 489 kts 153°
2026-05-07 10:59 4.23269 101.01145 36752 ft 489 kts 153°
2026-05-07 11:00 4.17109 101.04049 36758 ft 489 kts 153°
2026-05-07 11:00 4.10959 101.06949 36772 ft 488 kts 153°
2026-05-07 11:01 4.04810 101.09847 36755 ft 488 kts 153°
2026-05-07 11:01 3.98710 101.12722 36752 ft 488 kts 153°
2026-05-07 11:02 3.92566 101.15618 36751 ft 488 kts 153°
2026-05-07 11:02 3.86412 101.18517 36751 ft 488 kts 153°
2026-05-07 11:03 3.80262 101.21415 36753 ft 488 kts 153°
2026-05-07 11:03 3.74159 101.24338 36752 ft 488 kts 152°
2026-05-07 11:04 3.68139 101.27486 36759 ft 488 kts 150°
2026-05-07 11:04 3.62128 101.30672 36756 ft 488 kts 151°
2026-05-07 11:05 3.56103 101.33825 36758 ft 488 kts 151°
2026-05-07 11:05 3.50080 101.36956 36760 ft 488 kts 151°
2026-05-07 11:06 3.44094 101.40067 36753 ft 488 kts 151°
2026-05-07 11:06 3.38069 101.43202 36757 ft 488 kts 151°
2026-05-07 11:07 3.32035 101.46339 36755 ft 488 kts 152°
2026-05-07 11:07 3.25891 101.49263 36750 ft 489 kts 154°
2026-05-07 11:08 3.19676 101.52052 36748 ft 489 kts 154°
2026-05-07 11:08 3.13468 101.54870 36748 ft 489 kts 154°
2026-05-07 11:09 3.07278 101.57719 36749 ft 489 kts 154°
2026-05-07 11:09 3.01130 101.60557 36750 ft 489 kts 154°
2026-05-07 11:10 2.94946 101.63410 36755 ft 489 kts 154°
2026-05-07 11:10 2.88760 101.66260 36760 ft 489 kts 154°
2026-05-07 11:11 2.82575 101.69110 36761 ft 489 kts 154°
2026-05-07 11:11 2.76429 101.71943 36749 ft 489 kts 154°
2026-05-07 11:12 2.70254 101.74809 36747 ft 489 kts 153°
2026-05-07 11:12 2.64143 101.77806 36752 ft 489 kts 153°
2026-05-07 11:13 2.58036 101.80814 36754 ft 488 kts 150°
2026-05-07 11:13 2.52592 101.84803 36774 ft 485 kts 135°
2026-05-07 11:14 2.48240 101.89919 36783 ft 483 kts 126°
2026-05-07 11:14 2.44282 101.95303 36780 ft 484 kts 125°
2026-05-07 11:15 2.40329 102.00655 36781 ft 484 kts 126°
2026-05-07 11:15 2.36288 102.06050 36785 ft 485 kts 126°
2026-05-07 11:16 2.32233 102.11435 36784 ft 485 kts 126°
2026-05-07 11:16 2.28171 102.16827 36784 ft 485 kts 126°
2026-05-07 11:17 2.24109 102.22224 36788 ft 485 kts 126°
2026-05-07 11:17 2.20075 102.27583 36795 ft 485 kts 126°
2026-05-07 11:18 2.16011 102.32983 36791 ft 485 kts 126°
2026-05-07 11:18 2.11951 102.38377 36794 ft 485 kts 126°
2026-05-07 11:19 2.07896 102.43763 36800 ft 484 kts 126°
2026-05-07 11:19 2.03847 102.49142 36793 ft 484 kts 127°
2026-05-07 11:20 1.99832 102.54475 36795 ft 483 kts 126°
2026-05-07 11:20 1.95798 102.59834 36796 ft 482 kts 126°
2026-05-07 11:21 1.91761 102.65198 36799 ft 482 kts 126°
2026-05-07 11:21 1.87730 102.70556 36800 ft 482 kts 126°
2026-05-07 11:22 1.83701 102.75909 36797 ft 482 kts 127°
2026-05-07 11:22 1.79669 102.81267 36803 ft 482 kts 127°
2026-05-07 11:23 1.75634 102.86628 36797 ft 483 kts 127°
2026-05-07 11:23 1.71991 102.92198 36796 ft 482 kts 118°
2026-05-07 11:24 1.68880 102.98140 36801 ft 482 kts 117°
2026-05-07 11:24 1.65788 103.03998 36800 ft 482 kts 118°
2026-05-07 11:25 1.62324 103.09707 36762 ft 481 kts 131°
2026-05-07 11:25 1.59907 103.12055 36084 ft 488 kts 142°
2026-05-07 11:25 1.57079 103.13904 35425 ft 487 kts 153°
2026-05-07 11:26 1.53958 103.15207 34615 ft 487 kts 158°
2026-05-07 11:26 1.50774 103.16407 33731 ft 491 kts 158°
2026-05-07 11:26 1.47558 103.17618 32692 ft 495 kts 158°
2026-05-07 11:26 1.44372 103.18843 31631 ft 500 kts 158°
2026-05-07 11:27 1.41119 103.20120 30591 ft 503 kts 158°
2026-05-07 11:27 1.37854 103.21421 29655 ft 505 kts 157°
2026-05-07 11:27 1.34606 103.22721 28949 ft 499 kts 157°
2026-05-07 11:27 1.31406 103.24002 28374 ft 491 kts 157°
2026-05-07 11:28 1.28255 103.25260 27800 ft 484 kts 157°
2026-05-07 11:28 1.25145 103.26504 27359 ft 475 kts 156°
2026-05-07 11:28 1.22241 103.27879 27293 ft 458 kts 150°
2026-05-07 11:28 1.19526 103.29442 27206 ft 442 kts 147°
2026-05-07 11:29 1.16945 103.31024 27085 ft 429 kts 147°
2026-05-07 11:29 1.14417 103.32574 26659 ft 424 kts 147°
2026-05-07 11:29 1.11888 103.34088 26153 ft 423 kts 148°
2026-05-07 11:29 1.09349 103.35575 25598 ft 423 kts 148°
2026-05-07 11:30 1.06807 103.37043 25057 ft 422 kts 148°
2026-05-07 11:30 1.04254 103.38513 24435 ft 424 kts 148°
2026-05-07 11:30 1.01678 103.40008 23529 ft 429 kts 146°
2026-05-07 11:30 0.99415 103.41931 22468 ft 433 kts 127°
2026-05-07 11:31 0.97849 103.44511 21471 ft 437 kts 112°
2026-05-07 11:31 0.97032 103.47396 20492 ft 440 kts 96°
2026-05-07 11:31 0.96831 103.50457 19550 ft 443 kts 92°
2026-05-07 11:31 0.96669 103.53543 18618 ft 446 kts 93°
2026-05-07 11:32 0.96569 103.59724 16935 ft 440 kts 83°
2026-05-07 11:32 0.97039 103.62692 16689 ft 424 kts 79°
2026-05-07 11:32 0.97561 103.65559 16128 ft 416 kts 80°
2026-05-07 11:33 0.98024 103.68432 15141 ft 421 kts 81°
2026-05-07 11:33 0.98434 103.71302 14214 ft 420 kts 82°
2026-05-07 11:33 0.98814 103.74088 13356 ft 391 kts 82°
2026-05-07 11:33 0.99176 103.76714 12306 ft 372 kts 82°
2026-05-07 11:34 0.99524 103.79222 11305 ft 357 kts 82°
2026-05-07 11:34 0.99861 103.81633 10331 ft 345 kts 82°
2026-05-07 11:34 1.00188 103.83974 9354 ft 335 kts 82°
2026-05-07 11:34 1.00497 103.86257 8331 ft 328 kts 83°
2026-05-07 11:35 1.00786 103.88475 7631 ft 313 kts 83°
2026-05-07 11:35 1.00968 103.89866 7441 ft 296 kts 83°
2026-05-07 11:35 1.01306 103.92447 7157 ft 263 kts 83°
2026-05-07 11:35 1.01459 103.93611 7127 ft 246 kts 83°
2026-05-07 11:36 1.01762 103.95913 7143 ft 252 kts 82°
2026-05-07 11:36 1.02307 103.97540 7137 ft 252 kts 57°
2026-05-07 11:36 1.03340 103.98961 7147 ft 253 kts 54°
2026-05-07 11:36 1.04351 104.00339 7135 ft 251 kts 54°
2026-05-07 11:37 1.05371 104.01736 7119 ft 247 kts 55°
2026-05-07 11:37 1.06053 104.02674 7138 ft 247 kts 54°
2026-05-07 11:37 1.07058 104.04059 7133 ft 246 kts 55°
2026-05-07 11:37 1.08064 104.05448 7136 ft 246 kts 55°
2026-05-07 11:38 1.09065 104.06833 7134 ft 246 kts 55°
2026-05-07 11:38 1.10055 104.08203 7136 ft 247 kts 55°
2026-05-07 11:38 1.11062 104.09598 7132 ft 248 kts 55°
2026-05-07 11:38 1.12071 104.10997 7135 ft 248 kts 55°
2026-05-07 11:39 1.13084 104.12399 7136 ft 248 kts 54°
2026-05-07 11:39 1.14335 104.13542 7128 ft 243 kts 26°
2026-05-07 11:39 1.15904 104.14216 7143 ft 250 kts 24°
2026-05-07 11:39 1.17525 104.14899 7144 ft 254 kts 24°
2026-05-07 11:40 1.19154 104.15587 7135 ft 253 kts 24°
2026-05-07 11:40 1.20764 104.16269 7089 ft 251 kts 24°
2026-05-07 11:40 1.22379 104.16954 6890 ft 254 kts 24°
2026-05-07 11:40 1.24006 104.17646 6682 ft 253 kts 24°
2026-05-07 11:41 1.25624 104.18335 6439 ft 252 kts 24°
2026-05-07 11:41 1.27239 104.19023 6112 ft 253 kts 24°
2026-05-07 11:41 1.28856 104.19712 5805 ft 253 kts 24°
2026-05-07 11:41 1.30498 104.20412 5343 ft 260 kts 24°
2026-05-07 11:42 1.32190 104.21094 4854 ft 263 kts 15°
2026-05-07 11:42 1.34021 104.21137 4363 ft 266 kts 349°
2026-05-07 11:42 1.35840 104.20733 3926 ft 271 kts 348°
2026-05-07 11:42 1.37700 104.20321 3446 ft 277 kts 348°
2026-05-07 11:43 1.39573 104.19910 2999 ft 282 kts 348°
2026-05-07 11:43 1.41502 104.19488 2640 ft 283 kts 348°
2026-05-07 11:43 1.43398 104.19077 2494 ft 274 kts 348°
2026-05-07 11:43 1.45190 104.18645 2474 ft 256 kts 339°
2026-05-07 11:44 1.46606 104.17700 2482 ft 239 kts 315°
2026-05-07 11:44 1.47724 104.16487 2503 ft 236 kts 311°
2026-05-07 11:44 1.48796 104.15242 2490 ft 237 kts 310°
2026-05-07 11:44 1.49865 104.13990 2493 ft 237 kts 310°
2026-05-07 11:45 1.50936 104.12731 2489 ft 237 kts 310°
2026-05-07 11:45 1.52003 104.11474 2505 ft 237 kts 310°
2026-05-07 11:45 1.53068 104.10214 2490 ft 238 kts 310°
2026-05-07 11:45 1.53992 104.08874 2474 ft 233 kts 289°
2026-05-07 11:46 1.54109 104.07291 2507 ft 231 kts 255°
2026-05-07 11:46 1.53321 104.05915 2482 ft 232 kts 220°
2026-05-07 11:46 1.51945 104.05078 2496 ft 231 kts 203°
2026-05-07 11:46 1.50505 104.04469 2523 ft 219 kts 201°
2026-05-07 11:47 1.49121 104.03890 2364 ft 215 kts 202°
2026-05-07 11:47 1.47756 104.03305 2067 ft 211 kts 202°
2026-05-07 11:47 1.46448 104.02739 1805 ft 200 kts 202°
2026-05-07 11:47 1.45271 104.02180 1616 ft 176 kts 205°
2026-05-07 11:48 1.44233 104.01690 1301 ft 156 kts 202°
2026-05-07 11:48 1.43241 104.01296 980 ft 150 kts 199°
2026-05-07 11:48 1.42274 104.00914 984 ft 152 kts 201°
2026-05-07 11:48 1.41322 104.00486 841 ft 149 kts 202°
2026-05-07 11:49 1.40378 104.00076 638 ft 148 kts 202°
2026-05-07 11:49 1.39456 103.99677 401 ft 141 kts 201°
2026-05-07 11:49 1.38554 103.99297 293 ft 142 kts 201°
2026-05-07 11:49 1.37626 103.98900 95 ft 145 kts 201°
2026-05-07 11:50 1.36727 103.98520 34 ft 130 kts 202°
2026-05-07 11:50 1.36010 103.98216 35 ft 81 kts 203°
2026-05-07 11:50 1.35653 103.98112 35 ft 41 kts 181°
2026-05-07 11:50 1.35548 103.98122 35 ft 0 kts 171°
2026-05-07 11:51 1.35545 103.98123 35 ft 1 kts 171°
2026-05-07 11:51 1.35535 103.98124 35 ft 2 kts 171°
2026-05-07 11:51 1.35533 103.98125 35 ft 0 kts 171°
2026-05-07 11:51 1.35530 103.98125 35 ft 0 kts 171°
2026-05-07 11:52 1.35491 103.98129 35 ft 20 kts 176°
2026-05-07 11:52 1.35388 103.98138 35 ft 10 kts 177°
2026-05-07 11:52 1.35320 103.98119 35 ft 10 kts 202°
2026-05-07 11:52 1.35253 103.98090 35 ft 11 kts 202°
2026-05-07 11:53 1.35183 103.98061 35 ft 11 kts 202°
2026-05-07 11:53 1.35111 103.98030 35 ft 12 kts 202°
2026-05-07 11:53 1.35035 103.97999 35 ft 12 kts 202°
2026-05-07 11:53 1.34955 103.97987 35 ft 12 kts 153°
2026-05-07 11:54 1.34910 103.98037 36 ft 8 kts 127°
2026-05-07 11:54 1.34896 103.98085 36 ft 8 kts 78°
2026-05-07 11:54 1.34913 103.98139 36 ft 8 kts 71°
2026-05-07 11:54 1.34922 103.98165 36 ft 0 kts 72°